Temp
46 46 46 45 46 46 47 47 47 47 47 47 47 46 43 42 38 36 36 39 41 46 51 48 53 56 56 56 57 57 58 59 59 60 60 60 60 60 59 59 61 63 65 67 68 68 68 67 67 67 67 66 67 67 67 67 67 67 66 65 64 62 61 64 65 66 66 66 67 67 67 67 67 67
45 45 45 44 44 45 45 45 46 46 46 46 46 45 45 45 40 39 36 37 43 44 48 49 49 52 53 54 55 55 55 56 58 59 60 60 60 59 58 58 58 60 61 62 63 65 66 66 66 67 67 66 66 65 65 65 65 65 63 61 59 58 61 64 65 65 65 66 67 67 67 66 67 67
44 43 42 42 42 43 43 44 45 45 45 45 45 45 45 44 43 41 39 35 42 45 42 46 50 49 50 51 51 52 53 55 56 57 58 59 59 58 59 58 58 58 57 57 58 58 61 63 64 64 63 64 64 63 63 62 63 60 56 56 56 56 58 63 64 65 65 66 66 67 67 66 67 65
42 41 41 41 42 43 43 43 44 44 45 45 44 44 44 43 43 42 40 38 37 44 44 45 47 49 48 49 48 49 51 53 54 56 55 56 56 57 58 58 57 57 56 56 56 56 58 59 60 60 61 62 61 60 60 60 56 53 53 55 55 55 57 61 64 65 65 66 66 67 67 67 67 66
41 41 41 41 42 43 43 43 44 44 45 45 44 44 44 43 43 43 41 38 38 42 46 45 45 48 48 47 49 47 48 50 52 52 53 53 53 55 57 58 57 56 56 55 55 53 51 52 53 56 59 59 56 56 57 53 51 53 54 55 54 53 54 57 61 64 65 65 66 66 66 66 67 66
40 40 40 41 42 43 43 43 44 45 44 44 44 44 44 43 43 44 41 40 38 37 42 43 47 46 48 45 48 46 46 47 49 49 50 52 53 54 55 55 56 56 55 55 54 52 49 49 48 50 55 55 50 49 49 49 51 53 53 52 52 51 52 54 58 61 64 65 65 66 66 65 65 64
40 40 39 40 41 43 42 42 43 44 43 43 42 43 43 42 42 43 43 40 37 37 38 42 42 43 45 44 45 47 48 48 49 48 48 49 51 52 52 52 54 54 54 54 54 53 49 48 47 48 51 52 50 50 49 49 49 49 50 51 51 51 52 52 56 59 61 62 64 64 62 61 62 63
39 39 39 39 41 42 40 41 41 42 41 41 41 41 41 41 41 41 41 41 38 37 36 39 40 42 42 44 46 47 48 47 47 48 48 49 49 49 50 50 51 53 54 54 54 53 50 48 48 48 50 50 50 49 49 49 49 49 50 50 50 51 51 51 51 53 55 58 59 57 55 57 59 61
39 39 39 39 41 41 40 40 40 41 40 41 40 39 40 40 40 40 40 40 40 38 36 38 41 42 43 45 45 46 44 45 46 47 46 46 47 47 48 50 53 54 54 54 53 53 51 49 49 50 50 49 49 49 49 49 49 49 49 49 50 50 50 50 50 50 50 51 51 52 52 53 56 59
39 39 39 39 40 42 40 40 40 40 40 40 39 39 39 39 39 39 39 40 39 38 37 38 38 41 41 41 43 45 45 43 42 43 45 46 46 46 46 47 49 51 52 52 53 53 51 49 49 50 50 49 49 49 49 49 49 49 49 49 49 49 49 49 49 48 48 48 49 50 51 53 54 57
39 39 39 39 40 41 42 41 40 40 39 39 39 39 39 39 39 38 38 39 38 38 37 38 39 39 41 42 40 44 45 44 43 41 40 40 44 45 44 44 47 49 49 51 52 52 53 52 51 51 50 49 49 49 49 49 49 50 49 48 48 48 48 48 48 48 48 47 48 48 49 51 52 54
39 39 39 40 40 42 43 42 41 41 39 39 38 39 39 39 38 37 37 37 37 36 36 36 36 38 38 40 42 44 43 41 41 43 41 38 39 41 43 44 44 46 48 48 49 52 52 52 50 50 50 50 50 50 50 50 51 51 50 49 48 48 48 48 48 48 48 48 48 47 48 49 49 51
39 39 39 40 42 44 44 44 43 42 42 39 38 38 39 38 37 37 37 36 36 36 35 35 37 37 37 38 38 38 38 38 38 41 41 39 40 41 41 43 46 47 46 47 48 49 51 50 50 50 50 51 50 50 51 52 51 51 49 48 48 47 47 47 47 47 48 48 48 48 47 47 47 47
38 38 39 40 43 43 42 42 42 41 41 42 40 39 39 38 37 36 35 35 35 35 34 34 35 34 34 36 37 37 38 40 41 40 40 38 39 40 39 41 44 47 47 46 46 48 51 50 50 49 49 52 51 51 50 52 53 51 48 47 47 47 47 46 47 47 47 47 47 47 48 48 47 47
37 37 39 39 41 41 41 41 41 40 40 40 41 41 42 41 38 35 34 34 35 34 34 34 35 34 34 36 38 38 39 40 40 39 39 38 38 36 35 34 41 47 45 44 43 44 49 50 48 48 49 51 50 51 52 49 49 48 48 47 47 47 47 47 47 46 46 47 47 47 47 47 47 46
36 37 37 39 40 39 40 40 39 39 40 40 40 40 40 39 39 39 36 34 34 34 33 33 34 35 35 36 37 38 38 38 38 39 39 38 36 36 35 36 35 43 46 42 41 41 46 48 47 47 49 51 51 53 50 47 48 47 47 47 47 47 46 46 46 46 46 46 46 46 46 46 46 46
36 36 37 38 38 38 40 39 39 38 38 40 40 40 40 39 38 37 37 38 38 36 34 34 34 35 36 35 37 39 39 40 37 38 37 37 37 37 36 37 38 42 45 41 39 39 43 45 46 46 51 52 53 52 49 48 48 47 47 47 46 46 46 46 46 46 46 46 46 45 45 45 45 45
36 36 36 37 37 37 37 38 38 38 38 38 37 37 37 37 37 37 37 38 38 39 36 35 34 36 38 37 38 40 40 38 37 37 37 38 37 37 37 40 40 43 45 40 39 38 40 44 45 45 49 50 51 51 49 47 47 46 46 46 46 46 46 46 46 45 45 45 45 45 45 44 44 44
36 36 37 37 37 36 36 38 38 37 37 37 36 35 35 35 36 36 37 37 37 37 37 37 37 37 38 38 39 39 40 39 40 40 39 39 39 39 41 41 41 42 44 43 41 36 41 45 44 44 47 48 48 48 47 47 47 46 46 46 46 46 45 45 45 45 45 45 45 45 44 44 43 43
36 36 37 38 37 36 36 38 37 38 38 36 34 33 33 34 35 36 38 38 38 39 38 38 38 38 39 40 39 40 39 39 40 42 41 40 39 37 35 35 39 39 44 44 41 37 38 43 43 45 44 46 47 47 48 48 47 47 46 46 46 45 45 45 45 45 45 45 45 44 44 43 43 43
36 36 38 38 37 36 36 37 36 36 38 34 33 32 31 32 33 33 36 37 37 38 38 39 39 39 39 39 39 39 39 38 39 39 38 37 38 36 34 36 38 38 41 43 43 40 39 42 42 44 44 46 46 47 47 48 48 46 46 46 45 45 45 45 45 45 45 45 44 44 43 43 43 44
35 36 39 39 37 36 36 36 36 36 37 34 33 31 30 30 30 32 34 35 36 38 38 38 38 39 39 39 39 39 37 37 40 37 34 38 38 36 36 35 38 39 40 41 44 40 41 41 41 42 43 46 46 46 47 48 49 47 46 45 45 45 45 44 44 44 44 44 44 44 44 44 45 47
35 35 36 38 38 37 36 35 35 35 36 34 33 31 30 29 29 31 33 33 33 34 35 36 38 38 39 40 39 40 38 38 41 38 37 38 37 37 38 38 37 35 37 42 46 41 41 41 41 41 42 42 43 45 46 47 47 47 48 47 47 46 45 44 44 44 44 44 44 44 44 44 45 47
33 34 34 36 36 35 35 35 35 35 35 34 33 32 30 28 27 32 33 34 34 33 34 35 37 37 38 38 38 37 36 37 40 38 38 39 39 38 38 39 37 35 36 43 45 42 42 41 40 40 43 45 41 42 44 44 46 46 46 46 46 46 46 45 44 44 44 44 44 44 44 44 45 46
32 32 33 34 36 35 35 35 34 34 34 35 33 32 31 31 32 33 32 32 35 33 34 35 36 36 36 36 37 36 35 36 37 38 37 38 41 40 39 37 38 37 39 42 44 44 41 41 40 40 41 42 43 42 42 44 45 45 46 46 45 46 46 46 45 45 44 43 43 43 44 44 45 46
32 32 33 34 35 34 34 34 34 34 34 34 33 32 32 33 32 32 33 33 33 32 33 33 33 34 33 34 34 35 35 35 37 36 36 37 39 42 42 40 38 37 38 44 41 45 43 41 41 40 40 42 41 43 42 42 43 44 45 45 45 45 46 45 45 44 44 45 45 44 44 43 44 44
31 33 33 34 35 34 34 33 33 33 33 33 32 32 32 32 31 32 31 32 31 30 30 31 31 32 32 32 32 33 34 34 35 35 36 37 39 41 42 43 43 42 43 44 46 46 44 42 42 44 41 42 43 42 43 43 41 43 44 45 45 45 45 45 44 44 44 44 44 44 44 44 43 44
33 33 33 34 33 33 33 33 32 32 33 32 32 31 31 31 31 31 30 30 29 30 29 28 29 29 31 31 31 32 34 35 36 36 37 36 38 39 40 41 42 43 43 42 42 43 44 44 44 45 46 45 43 42 42 44 44 43 43 44 44 44 44 44 44 44 44 44 43 43 44 44 45 45
33 33 33 33 33 32 32 32 32 32 32 31 31 31 31 32 30 29 29 28 28 27 27 27 28 29 30 31 33 34 35 37 38 37 38 39 39 39 40 41 41 42 43 43 42 42 43 42 42 44 45 46 45 45 45 44 44 42 44 42 41 43 43 44 44 43 43 43 43 43 43 44 44 45
33 33 33 32 32 32 32 31 30 30 30 30 30 30 31 29 29 29 28 28 26 26 26 27 27 28 30 32 33 35 36 35 35 36 36 37 37 38 38 38 38 41 43 44 44 44 43 42 42 43 44 45 45 45 46 45 43 44 43 45 45 43 43 43 43 43 43 42 43 43 44 44 44 44
32 32 32 32 31 31 31 31 31 30 30 29 29 29 29 29 28 29 28 28 26 26 26 26 27 29 31 33 33 32 33 33 35 37 37 36 36 37 38 38 37 38 40 43 44 44 43 43 43 43 41 42 44 45 47 48 46 43 42 45 45 43 43 43 43 42 43 43 43 43 43 43 44 44
32 31 31 31 31 30 30 29 29 29 28 28 28 27 28 28 29 29 30 29 28 27 27 27 28 29 29 29 30 31 31 32 33 35 37 36 36 37 37 35 34 36 38 40 42 44 43 44 43 43 43 42 42 45 46 46 46 46 44 43 45 46 45 42 42 42 43 42 41 41 41 42 42 43
31 30 29 29 28 28 27 27 26 27 26 26 26 26 26 27 27 27 27 25 25 26 27 26 26 26 27 27 29 29 29 31 32 34 35 36 36 37 37 34 34 34 34 36 39 41 43 43 44 43 43 44 44 43 42 43 45 47 45 43 44 43 43 44 42 42 42 41 40 40 40 42 43 44
29 28 27 27 27 26 26 25 25 25 25 25 24 25 26 26 26 26 26 26 26 26 26 26 25 25 26 25 27 27 27 29 31 33 34 34 36 34 34 33 34 35 36 36 37 38 40 42 43 44 45 45 47 45 44 43 43 45 47 45 44 43 44 44 43 43 42 42 41 39 39 40 42 43
28 27 26 26 26 26 26 25 24 25 24 24 23 23 24 25 25 25 25 25 26 25 25 25 25 25 25 24 25 25 26 28 30 32 34 34 34 34 33 32 33 34 35 35 37 38 39 39 39 39 41 41 43 45 44 45 42 42 45 45 45 44 43 43 43 42 42 41 41 39 39 40 40 43
26 27 26 26 25 25 25 25 25 24 24 23 23 23 22 23 24 24 23 25 25 24 24 23 23 24 24 24 24 25 26 27 28 30 31 31 32 33 34 34 34 34 36 36 36 38 38 37 37 35 34 35 35 36 40 43 43 42 42 43 44 44 44 43 44 43 42 41 41 40 39 39 41 43
26 27 27 26 25 25 24 24 24 24 24 23 22 24 23 22 23 24 24 25 24 24 23 23 23 23 23 24 24 24 25 25 25 28 29 30 31 32 32 32 33 34 35 36 38 38 38 36 37 35 33 33 32 32 34 41 41 43 43 40 42 44 43 42 42 41 42 42 41 41 41 42 42 42
26 27 26 26 24 24 24 23 24 22 22 23 24 24 23 23 24 23 24 24 23 23 22 22 22 23 23 23 22 22 23 25 26 26 27 29 29 30 31 31 32 33 34 36 37 38 38 36 35 34 33 31 31 31 32 37 38 40 42 41 38 40 44 41 40 40 41 42 42 43 43 41 41 42
27 26 26 25 24 24 23 23 23 22 23 24 24 23 23 23 23 23 23 22 22 22 21 21 21 21 21 22 22 22 22 22 23 25 26 27 28 29 30 31 31 33 34 34 36 37 37 35 35 34 34 32 31 32 33 32 33 38 40 41 40 40 42 42 40 42 41 40 41 43 43 42 42 41
27 27 26 25 25 24 23 23 23 24 24 24 24 24 23 22 22 22 22 21 20 20 21 20 20 21 21 21 21 22 22 22 23 25 26 27 28 29 30 31 32 32 32 33 33 35 35 34 35 35 34 34 35 37 36 36 36 38 38 40 41 41 43 44 41 41 41 42 42 40 38 41 39 40
26 26 26 26 25 24 23 24 24 24 24 24 24 23 23 23 22 21 21 20 18 19 19 19 20 19 20 20 21 20 19 21 23 25 26 28 28 30 30 31 31 32 31 31 32 32 33 35 37 35 36 38 40 40 39 36 35 37 38 39 41 41 41 44 46 43 42 43 42 40 38 39 38 39
27 26 26 25 23 22 24 24 24 24 24 24 24 23 23 22 21 20 19 19 19 19 19 18 18 18 19 20 20 20 19 20 22 24 25 27 27 29 30 31 31 31 31 30 31 32 35 39 39 39 40 39 37 35 33 34 33 35 36 37 39 40 41 42 44 44 45 43 40 38 38 37 38 37
26 26 25 26 24 24 24 24 24 24 24 24 23 23 22 21 20 19 18 18 18 17 17 16 17 17 18 18 19 19 20 20 22 24 25 27 27 28 29 30 31 32 32 33 34 35 36 38 39 38 38 37 36 35 34 34 34 34 34 36 37 38 41 41 40 40 40 39 40 42 43 41 39 36
27 26 25 25 24 23 24 24 24 25 24 24 22 22 21 20 18 18 18 17 16 16 16 16 16 16 16 17 18 20 20 21 23 24 24 26 27 29 29 31 32 32 33 33 33 34 36 37 37 37 35 35 35 34 34 34 34 34 34 34 36 37 37 38 40 40 40 39 38 39 41 42 43 42
28 26 26 23 24 24 24 24 25 24 24 23 22 21 20 19 17 17 17 17 16 16 16 16 16 16 16 17 17 17 19 22 23 25 26 27 28 29 31 32 31 31 31 33 33 33 35 35 36 36 36 36 36 35 35 34 34 34 34 34 35 37 38 38 38 38 38 37 38 38 39 39 39 39
MSLP
1022.30 1022.22 1022.14 1022.14 1021.98 1021.78 1021.58 1021.38 1021.14 1020.98 1020.78 1020.58 1020.42 1020.30 1020.26 1020.02 1019.86 1018.62 1017.38 1016.58 1016.70 1015.90 1015.70 1015.26 1014.66 1014.66 1014.42 1014.18 1013.78 1013.54 1013.30 1013.02 1012.82 1012.46 1012.10 1011.82 1011.50 1011.22 1010.94 1010.66 1010.42 1010.10 1009.78 1009.54 1009.46 1009.42 1009.38 1009.30 1009.22 1009.06 1008.94 1008.86 1008.66 1008.46 1008.42 1008.50 1008.54 1008.58 1008.62 1008.66 1008.62 1008.58 1008.58 1008.46 1008.38 1008.38 1008.42 1008.42 1008.38 1008.34 1008.34 1008.38 1008.42 1008.58
1022.70 1022.66 1022.54 1022.50 1022.38 1022.18 1021.94 1021.70 1021.46 1021.18 1020.98 1020.82 1020.62 1020.46 1020.26 1020.06 1020.02 1019.54 1019.10 1016.98 1016.62 1016.18 1015.78 1015.86 1015.14 1014.86 1014.82 1014.54 1014.10 1013.82 1013.30 1013.02 1012.78 1012.30 1011.94 1011.66 1011.42 1011.14 1010.86 1010.50 1010.22 1009.98 1009.70 1009.46 1009.26 1009.18 1009.06 1008.98 1008.90 1008.82 1008.78 1008.66 1008.54 1008.46 1008.34 1008.34 1008.34 1008.38 1008.46 1008.46 1008.42 1008.38 1008.34 1008.30 1008.22 1008.18 1008.18 1008.14 1008.10 1008.06 1008.06 1008.10 1008.10 1008.14
1023.18 1023.10 1023.02 1022.86 1022.70 1022.42 1022.18 1021.90 1021.62 1021.38 1021.18 1021.02 1020.78 1020.54 1020.34 1020.14 1019.94 1019.74 1019.30 1018.46 1015.90 1016.74 1016.26 1015.66 1015.66 1015.30 1014.98 1014.78 1014.46 1014.02 1013.54 1012.94 1012.66 1012.26 1011.78 1011.46 1011.22 1011.02 1010.66 1010.34 1010.02 1009.74 1009.46 1009.26 1009.02 1008.86 1008.78 1008.70 1008.66 1008.66 1008.70 1008.58 1008.50 1008.38 1008.26 1008.22 1008.18 1008.26 1008.38 1008.34 1008.18 1008.18 1008.18 1008.10 1008.02 1007.98 1007.94 1007.86 1007.82 1007.78 1007.74 1007.78 1007.86 1007.98
1023.66 1023.50 1023.34 1023.18 1022.94 1022.62 1022.34 1022.02 1021.78 1021.50 1021.30 1021.10 1020.86 1020.62 1020.46 1020.22 1020.02 1019.78 1019.38 1018.98 1017.10 1016.22 1016.46 1015.74 1015.30 1015.38 1015.06 1014.78 1014.54 1013.94 1013.58 1013.06 1012.54 1012.06 1011.82 1011.58 1011.30 1010.94 1010.50 1010.10 1009.78 1009.54 1009.26 1009.02 1008.86 1008.58 1008.46 1008.38 1008.38 1008.38 1008.42 1008.38 1008.34 1008.30 1008.22 1008.14 1008.22 1008.26 1008.26 1008.14 1007.98 1007.98 1008.02 1007.94 1007.78 1007.74 1007.70 1007.62 1007.54 1007.50 1007.50 1007.50 1007.54 1007.70
1023.98 1023.82 1023.62 1023.38 1023.06 1022.74 1022.46 1022.14 1021.82 1021.54 1021.30 1021.02 1020.82 1020.62 1020.42 1020.26 1019.94 1019.66 1019.34 1018.82 1017.58 1016.06 1016.06 1016.06 1015.42 1015.06 1015.06 1014.50 1014.46 1014.10 1013.62 1013.14 1012.58 1012.30 1011.90 1011.70 1011.46 1010.94 1010.38 1009.90 1009.58 1009.30 1009.06 1008.82 1008.62 1008.50 1008.26 1008.10 1008.10 1008.14 1008.14 1008.10 1008.14 1008.10 1008.10 1008.14 1008.18 1008.10 1007.98 1007.90 1007.82 1007.82 1007.86 1007.82 1007.66 1007.58 1007.50 1007.42 1007.34 1007.30 1007.30 1007.26 1007.34 1007.38
1024.22 1024.02 1023.78 1023.42 1023.10 1022.70 1022.50 1022.14 1021.82 1021.50 1021.30 1021.06 1020.82 1020.58 1020.38 1020.18 1019.90 1019.62 1019.38 1018.82 1018.30 1017.10 1015.70 1015.86 1015.42 1015.22 1015.02 1014.50 1014.22 1014.22 1013.50 1013.18 1012.82 1012.42 1011.98 1011.54 1011.26 1010.82 1010.42 1010.02 1009.54 1009.22 1008.90 1008.66 1008.42 1008.38 1008.18 1007.82 1007.78 1007.82 1007.82 1007.82 1007.86 1007.86 1007.86 1007.86 1007.82 1007.82 1007.82 1007.74 1007.66 1007.66 1007.66 1007.62 1007.54 1007.46 1007.38 1007.22 1007.18 1007.14 1007.14 1007.22 1007.26 1007.26
1024.34 1024.06 1023.90 1023.62 1023.30 1022.86 1022.62 1022.34 1022.10 1021.78 1021.62 1021.46 1021.18 1020.86 1020.58 1020.38 1020.06 1019.74 1019.50 1019.14 1018.54 1017.78 1016.58 1016.34 1015.86 1015.30 1014.98 1014.82 1014.02 1013.82 1013.50 1013.14 1012.94 1012.50 1012.02 1011.54 1011.02 1010.82 1010.66 1010.26 1009.66 1009.18 1008.78 1008.38 1008.14 1008.10 1008.14 1007.82 1007.46 1007.46 1007.50 1007.54 1007.58 1007.54 1007.54 1007.58 1007.58 1007.62 1007.58 1007.50 1007.46 1007.46 1007.42 1007.42 1007.38 1007.34 1007.30 1007.18 1007.10 1007.02 1007.06 1007.10 1007.14 1007.14
1024.54 1024.34 1024.14 1023.82 1023.50 1023.22 1023.06 1022.74 1022.42 1022.18 1022.10 1021.90 1021.62 1021.26 1020.98 1020.66 1020.26 1019.94 1019.62 1019.42 1019.06 1018.30 1017.50 1016.22 1016.50 1015.62 1015.14 1014.38 1014.18 1013.78 1013.38 1013.06 1012.66 1012.42 1012.02 1011.66 1011.18 1010.78 1010.62 1010.26 1009.66 1008.98 1008.54 1008.18 1007.94 1007.78 1007.82 1007.86 1007.46 1007.10 1007.14 1007.22 1007.26 1007.34 1007.34 1007.34 1007.34 1007.38 1007.30 1007.26 1007.26 1007.26 1007.26 1007.22 1007.26 1007.26 1007.26 1007.18 1007.06 1007.06 1007.10 1007.06 1007.06 1007.06
1024.78 1024.54 1024.34 1024.06 1023.66 1023.30 1023.18 1022.82 1022.54 1022.38 1022.18 1021.94 1021.66 1021.38 1021.02 1020.62 1020.22 1019.82 1019.50 1019.10 1018.78 1018.34 1017.66 1016.54 1015.94 1015.74 1015.06 1014.54 1014.10 1013.86 1013.34 1012.74 1012.58 1012.26 1011.98 1011.62 1011.22 1010.66 1010.34 1009.90 1009.26 1008.74 1008.38 1008.06 1007.78 1007.54 1007.46 1007.46 1007.38 1006.94 1006.78 1006.86 1006.98 1007.10 1007.18 1007.22 1007.22 1007.18 1007.06 1007.02 1007.06 1007.10 1007.10 1007.10 1007.14 1007.14 1007.14 1007.10 1007.06 1007.02 1007.02 1007.02 1007.06 1007.06
1024.86 1024.70 1024.42 1024.06 1023.70 1023.26 1023.10 1022.86 1022.66 1022.46 1022.26 1021.94 1021.62 1021.30 1020.98 1020.62 1020.18 1019.74 1019.30 1018.90 1018.54 1018.18 1017.66 1017.10 1015.82 1015.26 1015.06 1014.30 1013.98 1013.78 1013.50 1013.10 1012.54 1011.98 1011.66 1011.34 1011.02 1010.62 1010.10 1009.82 1009.54 1009.06 1008.58 1008.18 1007.74 1007.46 1007.26 1007.22 1007.14 1006.90 1006.54 1006.50 1006.62 1006.82 1006.98 1007.06 1007.14 1007.02 1006.90 1006.86 1006.90 1006.94 1006.94 1006.98 1007.02 1007.06 1007.02 1006.98 1006.98 1006.94 1006.94 1006.94 1007.02 1007.02
1024.90 1024.66 1024.42 1024.10 1023.78 1023.34 1022.98 1022.82 1022.58 1022.42 1022.22 1021.94 1021.62 1021.22 1020.90 1020.46 1020.02 1019.58 1019.14 1018.78 1018.38 1017.98 1017.50 1016.82 1016.34 1015.46 1014.78 1014.66 1013.86 1013.22 1013.26 1013.06 1012.74 1012.34 1011.82 1011.30 1010.74 1010.50 1010.34 1009.74 1009.34 1009.10 1008.58 1008.02 1007.74 1007.46 1007.10 1006.90 1006.78 1006.62 1006.34 1006.22 1006.30 1006.50 1006.70 1006.82 1006.98 1006.86 1006.78 1006.78 1006.78 1006.78 1006.78 1006.82 1006.90 1006.94 1006.86 1006.86 1006.90 1006.78 1006.86 1006.90 1007.02 1007.06
1024.94 1024.70 1024.46 1024.18 1023.82 1023.30 1023.02 1022.86 1022.62 1022.46 1022.22 1021.90 1021.58 1021.18 1020.70 1020.26 1019.94 1019.54 1019.10 1018.66 1018.18 1017.78 1017.34 1016.98 1016.22 1015.54 1014.94 1014.26 1013.66 1013.14 1012.86 1012.62 1012.30 1012.18 1012.06 1011.70 1011.14 1010.50 1009.94 1009.86 1009.54 1008.86 1008.62 1007.94 1007.38 1007.02 1006.78 1006.54 1006.50 1006.42 1006.14 1005.94 1006.02 1006.18 1006.42 1006.58 1006.74 1006.66 1006.66 1006.62 1006.62 1006.66 1006.66 1006.66 1006.74 1006.82 1006.78 1006.78 1006.70 1006.70 1006.82 1006.86 1007.06 1007.10
1025.02 1024.78 1024.54 1024.22 1023.70 1023.30 1023.22 1022.98 1022.78 1022.62 1022.34 1021.94 1021.50 1020.98 1020.66 1020.22 1019.90 1019.50 1019.06 1018.62 1018.10 1017.58 1017.30 1016.66 1016.02 1015.42 1014.82 1014.30 1013.74 1013.10 1012.78 1012.62 1012.14 1011.58 1011.78 1011.46 1011.06 1010.78 1010.10 1009.26 1009.38 1009.02 1008.42 1007.74 1007.26 1006.90 1006.62 1006.42 1006.30 1006.10 1005.94 1005.74 1005.82 1005.98 1006.14 1006.30 1006.42 1006.50 1006.50 1006.50 1006.46 1006.50 1006.54 1006.58 1006.62 1006.66 1006.66 1006.62 1006.58 1006.66 1006.78 1006.94 1007.14 1007.30
1025.02 1024.82 1024.58 1024.22 1023.74 1023.54 1023.34 1023.06 1022.86 1022.66 1022.34 1021.98 1021.66 1021.10 1020.58 1020.14 1019.78 1019.46 1019.02 1018.54 1018.10 1017.62 1017.10 1016.62 1016.10 1015.38 1014.58 1014.06 1013.58 1012.98 1012.34 1011.86 1011.50 1011.34 1011.22 1011.22 1010.74 1010.54 1010.14 1009.34 1008.98 1008.74 1008.30 1007.62 1007.18 1006.78 1006.54 1006.26 1005.98 1006.10 1005.98 1005.38 1005.54 1005.66 1005.90 1005.98 1006.06 1006.22 1006.34 1006.34 1006.34 1006.38 1006.46 1006.54 1006.54 1006.54 1006.50 1006.50 1006.58 1006.74 1006.82 1006.90 1007.10 1007.38
1025.10 1024.86 1024.58 1024.22 1023.86 1023.70 1023.46 1023.14 1022.94 1022.66 1022.30 1021.90 1021.46 1021.06 1020.70 1020.42 1020.06 1019.54 1019.10 1018.66 1018.18 1017.62 1017.06 1016.50 1015.98 1015.30 1014.50 1013.70 1013.10 1012.46 1011.78 1011.30 1011.06 1010.78 1010.66 1010.66 1010.58 1010.42 1010.22 1009.58 1008.46 1008.78 1008.46 1007.90 1007.54 1006.82 1006.62 1006.46 1006.14 1005.78 1005.62 1005.10 1005.18 1005.38 1005.46 1005.66 1005.86 1006.06 1006.18 1006.18 1006.22 1006.26 1006.38 1006.46 1006.50 1006.50 1006.58 1006.62 1006.66 1006.78 1006.86 1006.90 1007.10 1007.42
1025.22 1024.90 1024.58 1024.26 1023.98 1023.86 1023.50 1023.14 1022.90 1022.58 1022.26 1021.78 1021.34 1020.94 1020.58 1020.26 1020.02 1019.74 1019.38 1018.70 1017.94 1017.42 1016.98 1016.30 1015.74 1015.18 1014.38 1013.58 1012.98 1012.30 1011.70 1011.10 1010.66 1010.46 1010.26 1010.18 1010.22 1010.10 1009.94 1009.54 1009.14 1008.46 1008.50 1008.14 1007.70 1006.98 1006.54 1006.54 1006.30 1005.70 1005.30 1004.74 1004.74 1004.90 1005.18 1005.46 1005.70 1005.90 1006.02 1006.10 1006.14 1006.22 1006.30 1006.42 1006.46 1006.50 1006.54 1006.62 1006.70 1006.82 1006.94 1006.94 1007.18 1007.46
1025.26 1024.98 1024.62 1024.26 1023.98 1023.86 1023.54 1023.22 1022.86 1022.54 1022.18 1021.70 1021.26 1020.82 1020.46 1020.14 1019.82 1019.50 1019.02 1018.54 1018.10 1017.42 1016.86 1016.22 1015.50 1015.02 1014.30 1013.46 1012.66 1012.10 1011.54 1010.86 1010.42 1010.06 1009.86 1009.66 1009.58 1009.46 1009.42 1009.02 1008.78 1008.50 1008.30 1008.30 1008.06 1007.30 1006.30 1006.42 1006.02 1005.62 1004.98 1004.58 1004.54 1004.82 1005.10 1005.30 1005.50 1005.74 1005.90 1005.98 1006.10 1006.18 1006.26 1006.38 1006.46 1006.54 1006.62 1006.70 1006.78 1006.94 1007.02 1007.10 1007.30 1007.54
1025.26 1025.02 1024.62 1024.22 1023.98 1023.82 1023.62 1023.18 1022.82 1022.54 1022.14 1021.66 1021.22 1020.74 1020.38 1020.02 1019.58 1019.22 1018.78 1018.34 1017.86 1017.46 1017.02 1016.42 1015.66 1014.82 1014.30 1013.70 1012.82 1011.94 1011.38 1010.66 1009.94 1009.58 1009.38 1009.14 1009.02 1008.94 1008.82 1008.46 1008.38 1008.26 1008.26 1008.50 1008.14 1007.26 1006.18 1006.10 1005.98 1005.58 1005.14 1004.90 1004.70 1004.90 1005.06 1005.18 1005.34 1005.58 1005.74 1005.90 1005.98 1006.10 1006.22 1006.34 1006.46 1006.58 1006.70 1006.78 1006.86 1007.02 1007.10 1007.26 1007.46 1007.70
1025.34 1025.02 1024.62 1024.26 1024.06 1023.90 1023.66 1023.18 1022.90 1022.54 1022.06 1021.70 1021.34 1020.90 1020.42 1020.02 1019.54 1019.10 1018.66 1018.22 1017.86 1017.38 1016.86 1016.26 1015.58 1014.90 1014.26 1013.58 1012.74 1011.86 1011.02 1010.30 1009.46 1008.98 1008.78 1008.62 1008.54 1008.34 1008.18 1008.10 1008.14 1007.98 1007.82 1007.90 1007.90 1007.38 1006.10 1005.86 1005.94 1005.34 1005.14 1005.26 1005.06 1005.14 1005.18 1005.18 1005.30 1005.46 1005.70 1005.86 1005.94 1006.06 1006.18 1006.30 1006.46 1006.62 1006.74 1006.86 1006.98 1007.10 1007.30 1007.38 1007.58 1007.82
1025.34 1025.02 1024.54 1024.22 1024.10 1023.98 1023.70 1023.26 1023.02 1022.66 1022.10 1021.78 1021.46 1021.10 1020.70 1020.10 1019.42 1018.90 1018.46 1018.14 1017.70 1017.18 1016.58 1015.98 1015.38 1014.82 1014.14 1013.46 1012.62 1011.74 1011.02 1010.22 1009.30 1008.42 1008.14 1008.18 1008.14 1008.26 1008.22 1008.10 1007.74 1007.62 1007.22 1007.30 1007.38 1007.30 1006.50 1005.74 1005.82 1005.02 1005.18 1005.42 1005.22 1005.22 1005.22 1005.22 1005.30 1005.46 1005.66 1005.82 1005.98 1006.10 1006.18 1006.30 1006.46 1006.62 1006.74 1006.94 1007.10 1007.18 1007.38 1007.66 1007.82 1008.02
1025.34 1025.02 1024.62 1024.30 1024.22 1023.98 1023.70 1023.34 1023.06 1022.62 1022.10 1021.86 1021.54 1021.26 1020.86 1020.30 1019.62 1018.94 1018.30 1017.62 1017.14 1016.66 1016.22 1015.74 1015.14 1014.58 1013.82 1012.94 1012.10 1011.42 1010.90 1010.30 1009.34 1008.50 1008.02 1007.86 1007.86 1007.90 1007.82 1007.42 1007.30 1007.06 1006.94 1006.82 1006.82 1006.78 1006.22 1005.34 1005.22 1004.94 1005.22 1005.38 1005.26 1005.22 1005.30 1005.38 1005.38 1005.46 1005.66 1005.86 1005.98 1006.14 1006.26 1006.34 1006.46 1006.62 1006.78 1006.94 1007.14 1007.30 1007.50 1007.78 1007.98 1008.18
1025.42 1025.22 1024.82 1024.46 1024.30 1024.10 1023.78 1023.42 1023.06 1022.66 1022.14 1021.82 1021.58 1021.30 1020.86 1020.30 1019.78 1019.10 1018.58 1017.94 1017.26 1016.50 1015.82 1015.30 1014.74 1014.18 1013.38 1012.54 1011.78 1011.30 1010.86 1010.18 1009.34 1008.86 1008.42 1007.74 1007.58 1007.58 1007.42 1007.30 1007.06 1006.86 1006.74 1006.42 1006.26 1006.34 1005.86 1005.38 1005.26 1004.94 1005.38 1005.30 1005.30 1005.38 1005.42 1005.42 1005.42 1005.50 1005.74 1005.90 1006.02 1006.18 1006.34 1006.46 1006.58 1006.70 1006.82 1007.02 1007.22 1007.42 1007.62 1007.82 1007.98 1008.26
1025.62 1025.38 1025.10 1024.74 1024.46 1024.30 1023.98 1023.58 1023.18 1022.78 1022.38 1022.02 1021.70 1021.42 1020.98 1020.50 1020.02 1019.42 1018.78 1018.18 1017.46 1016.66 1015.86 1015.02 1014.34 1013.58 1012.78 1012.10 1011.66 1011.26 1010.74 1010.02 1009.22 1008.78 1008.38 1007.62 1007.22 1007.14 1007.02 1007.02 1007.14 1007.10 1006.62 1005.98 1005.70 1005.90 1005.66 1005.54 1005.26 1005.18 1005.14 1005.02 1005.62 1005.66 1005.62 1005.58 1005.62 1005.74 1005.82 1006.02 1006.18 1006.30 1006.46 1006.58 1006.70 1006.82 1006.98 1007.18 1007.34 1007.54 1007.66 1007.82 1007.94 1008.34
1025.86 1025.58 1025.22 1024.86 1024.54 1024.42 1024.10 1023.70 1023.30 1022.94 1022.58 1022.18 1021.86 1021.50 1021.14 1020.78 1020.30 1019.58 1018.94 1018.26 1017.58 1016.74 1015.94 1015.14 1014.38 1013.66 1012.90 1012.38 1011.86 1011.26 1010.70 1010.02 1009.18 1008.66 1008.22 1007.46 1006.86 1006.90 1006.90 1006.90 1007.06 1007.18 1006.82 1005.86 1005.78 1005.82 1005.50 1005.62 1005.18 1005.46 1005.18 1004.14 1005.06 1005.82 1005.82 1005.82 1005.82 1005.90 1006.02 1006.18 1006.30 1006.46 1006.58 1006.74 1006.86 1006.98 1007.10 1007.30 1007.46 1007.62 1007.74 1007.86 1007.98 1008.30
1026.10 1025.78 1025.46 1025.10 1024.70 1024.54 1024.22 1023.90 1023.50 1023.10 1022.74 1022.38 1021.98 1021.74 1021.50 1021.22 1020.78 1019.86 1019.06 1018.26 1017.58 1016.90 1016.14 1015.46 1014.66 1013.98 1013.34 1012.70 1012.22 1011.62 1010.90 1010.34 1009.66 1009.06 1008.42 1007.74 1006.90 1006.66 1006.82 1006.94 1006.98 1007.10 1006.62 1006.18 1005.90 1005.78 1005.86 1005.74 1005.54 1005.26 1005.06 1004.90 1005.26 1005.54 1006.02 1005.98 1006.02 1006.06 1006.14 1006.30 1006.42 1006.54 1006.66 1006.82 1006.98 1007.18 1007.30 1007.42 1007.58 1007.74 1007.86 1007.98 1008.06 1008.18
1026.18 1026.02 1025.70 1025.34 1024.90 1024.70 1024.38 1024.06 1023.66 1023.30 1022.90 1022.54 1022.18 1021.94 1021.62 1021.10 1020.50 1019.90 1019.30 1018.58 1017.86 1017.26 1016.58 1015.98 1015.26 1014.54 1013.94 1013.26 1012.54 1011.98 1011.30 1010.74 1010.14 1009.46 1008.94 1008.46 1007.74 1006.94 1006.82 1006.94 1006.94 1006.90 1006.58 1005.78 1005.70 1005.58 1005.58 1005.42 1005.18 1004.94 1005.30 1005.18 1005.54 1005.50 1005.78 1006.14 1006.34 1006.30 1006.30 1006.42 1006.58 1006.70 1006.78 1006.86 1007.02 1007.26 1007.46 1007.58 1007.78 1007.90 1008.02 1008.10 1008.22 1008.30
1026.34 1026.06 1025.86 1025.54 1025.26 1024.90 1024.54 1024.22 1023.86 1023.50 1023.10 1022.66 1022.46 1022.10 1021.54 1021.06 1020.58 1019.94 1019.42 1018.78 1018.18 1017.62 1017.14 1016.54 1015.90 1015.34 1014.78 1014.14 1013.38 1012.50 1011.82 1011.10 1010.62 1010.02 1009.54 1009.02 1008.38 1007.86 1007.46 1007.22 1007.06 1006.90 1006.42 1005.82 1005.54 1005.38 1005.46 1005.42 1005.34 1005.06 1005.38 1005.50 1005.42 1005.78 1005.74 1005.86 1006.38 1006.58 1006.54 1006.58 1006.66 1006.82 1006.90 1007.02 1007.14 1007.26 1007.46 1007.66 1007.86 1008.02 1008.10 1008.18 1008.30 1008.46
1026.34 1026.14 1025.94 1025.74 1025.50 1025.14 1024.70 1024.38 1024.06 1023.74 1023.34 1023.06 1022.70 1022.22 1021.74 1021.26 1020.74 1020.22 1019.74 1019.18 1018.74 1018.22 1017.66 1017.14 1016.50 1016.06 1015.54 1014.90 1014.14 1013.30 1012.58 1011.82 1011.02 1010.54 1009.94 1009.38 1008.82 1008.30 1007.74 1007.38 1007.10 1006.82 1006.54 1006.34 1006.06 1005.78 1005.54 1005.38 1005.18 1005.18 1005.22 1005.34 1005.50 1005.62 1005.58 1005.94 1006.22 1006.42 1006.46 1006.78 1006.86 1006.98 1007.06 1007.14 1007.30 1007.42 1007.58 1007.70 1007.90 1008.06 1008.14 1008.30 1008.46 1008.62
1026.50 1026.34 1026.10 1025.82 1025.54 1025.26 1024.94 1024.62 1024.22 1023.82 1023.50 1023.26 1022.90 1022.50 1022.02 1021.54 1021.06 1020.66 1020.26 1019.82 1019.34 1018.82 1018.38 1017.90 1017.30 1016.58 1016.10 1015.62 1014.90 1013.90 1012.86 1012.02 1011.14 1010.30 1009.78 1009.42 1009.02 1008.54 1008.06 1007.78 1007.42 1006.94 1006.66 1006.46 1006.34 1006.26 1006.18 1006.02 1005.90 1005.62 1005.42 1005.38 1005.38 1005.38 1005.50 1005.66 1006.02 1006.34 1006.42 1006.66 1006.86 1007.02 1007.14 1007.22 1007.34 1007.50 1007.62 1007.74 1007.86 1008.02 1008.10 1008.22 1008.46 1008.58
1026.62 1026.34 1026.14 1025.94 1025.62 1025.34 1025.02 1024.70 1024.38 1024.06 1023.70 1023.34 1023.06 1022.74 1022.30 1021.94 1021.54 1021.10 1020.74 1020.30 1019.98 1019.62 1019.10 1018.54 1018.06 1017.38 1016.54 1015.70 1015.10 1014.30 1013.14 1012.38 1011.74 1011.06 1010.34 1009.70 1009.10 1008.78 1008.30 1007.78 1007.46 1007.22 1007.06 1006.98 1006.86 1006.70 1006.54 1006.42 1006.26 1006.14 1005.82 1005.50 1005.46 1005.50 1005.58 1005.78 1006.06 1006.18 1006.46 1006.30 1006.58 1006.98 1007.10 1007.22 1007.38 1007.50 1007.66 1007.82 1007.94 1008.10 1008.22 1008.30 1008.42 1008.58
1026.66 1026.46 1026.34 1026.22 1026.02 1025.70 1025.38 1025.06 1024.78 1024.46 1023.94 1023.42 1023.06 1022.86 1022.62 1022.34 1022.06 1021.62 1021.30 1020.94 1020.66 1020.14 1019.62 1019.06 1018.38 1017.58 1016.86 1016.10 1015.30 1014.58 1013.82 1013.02 1012.30 1011.66 1011.02 1010.54 1010.02 1009.42 1008.90 1008.46 1007.90 1007.46 1007.34 1007.18 1007.06 1007.02 1006.90 1006.70 1006.54 1006.42 1006.30 1006.10 1005.86 1005.74 1005.54 1005.54 1005.66 1006.06 1006.30 1006.26 1006.42 1006.38 1006.90 1007.22 1007.38 1007.50 1007.66 1007.82 1008.02 1008.18 1008.26 1008.34 1008.46 1008.58
1026.86 1026.74 1026.58 1026.30 1025.98 1025.66 1025.26 1024.90 1024.54 1024.26 1024.06 1023.86 1023.58 1023.30 1022.90 1022.58 1022.26 1021.86 1021.58 1021.18 1020.86 1020.54 1020.10 1019.50 1018.82 1017.90 1017.18 1016.46 1015.94 1015.26 1014.66 1014.06 1013.30 1012.46 1011.70 1011.26 1010.74 1010.18 1009.66 1009.02 1008.86 1008.46 1007.82 1007.38 1007.10 1006.94 1006.86 1006.82 1006.74 1006.62 1006.50 1006.42 1006.18 1005.74 1005.66 1005.66 1005.50 1005.54 1005.94 1006.22 1006.22 1006.30 1006.70 1007.02 1007.30 1007.50 1007.66 1007.86 1008.06 1008.18 1008.26 1008.34 1008.42 1008.54
1026.98 1026.82 1026.62 1026.38 1026.06 1025.82 1025.54 1025.18 1024.90 1024.58 1024.30 1023.98 1023.82 1023.58 1023.14 1022.74 1022.34 1021.94 1021.62 1021.30 1020.94 1020.54 1020.02 1019.58 1019.06 1018.46 1017.90 1017.30 1016.66 1015.98 1015.38 1014.78 1014.10 1013.26 1012.46 1011.86 1011.54 1011.06 1010.66 1010.50 1010.14 1009.58 1009.10 1008.42 1007.94 1007.42 1007.10 1006.94 1006.82 1006.70 1006.46 1006.26 1006.10 1006.06 1005.98 1005.74 1005.58 1005.46 1005.66 1006.06 1006.18 1006.34 1006.66 1006.86 1007.14 1007.42 1007.62 1007.90 1008.02 1008.14 1008.26 1008.34 1008.38 1008.46
1027.14 1026.98 1026.82 1026.66 1026.42 1026.14 1025.90 1025.62 1025.38 1025.14 1024.86 1024.50 1024.10 1023.82 1023.54 1023.10 1022.66 1022.30 1022.02 1021.74 1021.34 1020.90 1020.54 1020.10 1019.66 1019.14 1018.58 1018.06 1017.42 1016.82 1016.22 1015.34 1014.62 1014.02 1013.50 1012.82 1012.18 1011.66 1011.30 1011.02 1010.78 1010.42 1010.02 1009.54 1008.94 1008.46 1007.94 1007.46 1007.02 1006.62 1006.30 1006.02 1005.78 1005.86 1005.90 1005.90 1005.70 1005.54 1005.42 1005.70 1006.02 1006.18 1006.46 1006.70 1006.98 1007.22 1007.46 1007.54 1007.82 1008.14 1008.26 1008.34 1008.38 1008.42
1027.30 1027.18 1027.02 1026.86 1026.70 1026.58 1026.38 1026.18 1025.98 1025.70 1025.46 1025.14 1024.78 1024.34 1023.94 1023.54 1023.22 1022.82 1022.46 1022.14 1021.74 1021.34 1021.02 1020.54 1020.18 1019.78 1019.34 1018.86 1018.22 1017.62 1016.94 1016.22 1015.30 1014.42 1013.78 1013.38 1012.90 1012.42 1011.98 1011.66 1011.26 1010.82 1010.42 1010.02 1009.58 1009.06 1008.70 1008.22 1007.70 1007.10 1006.50 1006.34 1006.02 1005.86 1005.98 1005.98 1006.18 1006.06 1005.54 1005.54 1005.78 1005.90 1006.30 1006.58 1006.82 1007.14 1007.34 1007.58 1007.74 1007.90 1008.10 1008.26 1008.30 1008.30
1027.58 1027.34 1027.26 1027.06 1026.98 1026.86 1026.74 1026.58 1026.38 1026.10 1025.86 1025.54 1025.22 1024.82 1024.34 1023.94 1023.66 1023.38 1023.02 1022.62 1022.22 1021.86 1021.46 1021.02 1020.62 1020.18 1019.74 1019.38 1018.90 1018.34 1017.62 1016.90 1016.14 1015.30 1014.46 1013.78 1013.26 1012.74 1012.42 1012.18 1011.82 1011.30 1010.82 1010.42 1009.98 1009.54 1009.14 1008.82 1008.38 1008.10 1007.86 1007.50 1007.30 1006.78 1006.26 1006.10 1006.18 1006.30 1005.98 1005.54 1005.58 1005.70 1005.98 1006.34 1006.62 1006.90 1007.22 1007.50 1007.58 1007.78 1007.94 1007.94 1007.98 1008.18
1027.66 1027.46 1027.38 1027.30 1027.22 1027.18 1027.10 1026.94 1026.70 1026.42 1026.14 1025.78 1025.38 1025.14 1024.86 1024.54 1024.06 1023.78 1023.46 1022.98 1022.58 1022.26 1021.98 1021.62 1021.18 1020.74 1020.30 1019.82 1019.30 1018.82 1018.22 1017.54 1016.78 1015.94 1015.22 1014.54 1013.86 1013.18 1012.54 1012.02 1011.62 1011.30 1010.90 1010.46 1010.14 1009.74 1009.38 1009.14 1008.82 1008.58 1008.34 1008.02 1007.82 1007.66 1007.10 1006.42 1006.22 1006.22 1006.14 1006.42 1006.10 1005.78 1005.86 1006.22 1006.58 1006.86 1007.06 1007.18 1007.46 1007.54 1007.50 1007.66 1007.78 1007.94
1027.66 1027.62 1027.54 1027.46 1027.42 1027.42 1027.34 1027.18 1026.98 1026.70 1026.34 1025.90 1025.58 1025.30 1025.06 1024.78 1024.38 1023.98 1023.54 1023.14 1022.90 1022.66 1022.30 1021.94 1021.58 1021.22 1020.86 1020.42 1019.86 1019.22 1018.62 1018.06 1017.38 1016.58 1015.86 1015.10 1014.42 1013.82 1013.34 1012.82 1012.14 1011.50 1011.06 1010.50 1010.06 1009.78 1009.54 1009.38 1009.22 1009.06 1008.90 1008.70 1008.38 1008.02 1007.54 1006.74 1006.54 1006.22 1006.22 1006.58 1006.70 1006.42 1005.94 1006.14 1006.42 1006.66 1006.94 1007.06 1007.14 1007.22 1007.46 1007.66 1007.82 1007.94
1027.78 1027.74 1027.70 1027.66 1027.54 1027.54 1027.42 1027.30 1027.18 1026.90 1026.46 1026.06 1025.78 1025.54 1025.22 1024.90 1024.50 1024.14 1023.78 1023.58 1023.38 1023.06 1022.70 1022.34 1022.02 1021.66 1021.26 1020.82 1020.46 1019.98 1019.34 1018.62 1017.90 1017.18 1016.42 1015.70 1015.10 1014.50 1013.82 1013.26 1012.62 1011.90 1011.38 1010.78 1010.22 1009.86 1009.58 1009.42 1009.38 1009.26 1009.14 1009.02 1008.78 1008.38 1008.22 1008.06 1007.30 1006.46 1006.14 1006.34 1006.58 1006.42 1006.02 1005.94 1006.14 1006.34 1006.62 1006.94 1007.10 1007.30 1007.50 1007.62 1007.70 1007.74
1027.90 1027.82 1027.78 1027.78 1027.66 1027.58 1027.54 1027.38 1027.14 1026.82 1026.50 1026.18 1025.98 1025.74 1025.50 1025.18 1024.86 1024.54 1024.18 1023.98 1023.78 1023.46 1023.14 1022.82 1022.50 1022.02 1021.54 1021.14 1020.70 1020.22 1019.70 1019.14 1018.50 1017.70 1016.98 1016.14 1015.38 1014.78 1014.18 1013.54 1013.02 1012.42 1011.90 1011.38 1010.78 1010.26 1010.02 1009.78 1009.54 1009.34 1009.22 1008.94 1008.62 1008.22 1007.94 1007.78 1007.46 1006.86 1006.42 1005.94 1006.02 1006.10 1005.86 1005.66 1006.02 1006.18 1006.46 1006.66 1006.98 1007.30 1007.62 1007.70 1007.86 1008.06
1027.98 1027.82 1027.78 1027.82 1027.74 1027.62 1027.58 1027.34 1027.10 1026.86 1026.54 1026.26 1026.06 1025.86 1025.66 1025.46 1025.22 1024.98 1024.78 1024.58 1024.34 1023.98 1023.54 1023.18 1022.86 1022.46 1021.98 1021.50 1021.02 1020.62 1020.06 1019.34 1018.58 1017.86 1017.14 1016.34 1015.58 1014.98 1014.34 1013.78 1013.18 1012.66 1012.26 1011.78 1011.34 1010.94 1010.58 1010.06 1009.62 1009.26 1008.94 1008.54 1008.14 1007.78 1007.38 1007.22 1006.94 1006.42 1006.18 1005.86 1005.62 1005.62 1005.58 1005.46 1005.54 1005.86 1006.14 1006.42 1006.82 1007.22 1007.58 1007.70 1007.90 1008.14
1027.98 1027.90 1027.78 1027.78 1027.78 1027.70 1027.54 1027.34 1027.14 1026.90 1026.62 1026.38 1026.18 1025.94 1025.74 1025.58 1025.50 1025.38 1025.10 1024.86 1024.58 1024.30 1023.98 1023.66 1023.26 1022.86 1022.38 1021.86 1021.34 1020.82 1020.38 1019.78 1018.94 1018.06 1017.30 1016.58 1015.86 1015.06 1014.38 1013.86 1013.38 1012.86 1012.46 1012.10 1011.66 1011.18 1010.58 1009.98 1009.42 1008.94 1008.58 1008.34 1008.14 1008.02 1007.74 1007.58 1007.30 1006.94 1006.58 1006.22 1005.82 1005.46 1005.22 1005.38 1005.54 1005.66 1005.86 1006.26 1006.74 1007.30 1007.74 1007.94 1008.02 1008.10
1027.94 1027.86 1027.78 1027.78 1027.82 1027.66 1027.50 1027.34 1027.14 1026.94 1026.70 1026.50 1026.34 1026.18 1025.94 1025.74 1025.62 1025.46 1025.26 1025.06 1024.86 1024.58 1024.26 1024.02 1023.66 1023.30 1022.82 1022.30 1021.74 1021.18 1020.54 1019.90 1019.26 1018.50 1017.70 1016.94 1016.26 1015.54 1014.78 1014.14 1013.66 1013.22 1012.78 1012.26 1011.66 1011.10 1010.50 1009.94 1009.46 1009.02 1008.70 1008.42 1008.22 1008.18 1007.94 1007.58 1007.46 1007.30 1006.98 1006.54 1006.22 1005.82 1005.50 1005.58 1005.78 1006.02 1006.26 1006.46 1006.58 1006.54 1006.58 1006.90 1007.38 1007.74
1027.86 1027.82 1027.74 1027.78 1027.74 1027.62 1027.50 1027.38 1027.14 1026.94 1026.74 1026.58 1026.46 1026.26 1026.18 1026.10 1026.02 1025.90 1025.66 1025.46 1025.26 1024.98 1024.66 1024.34 1023.90 1023.50 1023.14 1022.62 1022.10 1021.42 1020.78 1020.18 1019.50 1018.82 1018.06 1017.34 1016.58 1015.86 1015.18 1014.46 1013.94 1013.50 1012.94 1012.42 1011.78 1011.10 1010.50 1010.02 1009.58 1009.26 1008.94 1008.58 1008.38 1008.14 1007.90 1007.70 1007.42 1007.26 1007.14 1006.90 1006.42 1006.06 1005.94 1006.10 1006.18 1006.30 1006.46 1006.70 1006.86 1006.82 1006.74 1006.74 1006.74 1006.66
1027.74 1027.78 1027.74 1027.70 1027.66 1027.58 1027.46 1027.34 1027.14 1026.98 1026.78 1026.62 1026.50 1026.38 1026.34 1026.26 1026.30 1026.14 1025.94 1025.74 1025.50 1025.18 1024.94 1024.58 1024.18 1023.74 1023.34 1022.86 1022.30 1021.74 1021.06 1020.38 1019.58 1018.90 1018.26 1017.54 1016.82 1016.06 1015.38 1014.74 1014.26 1013.78 1013.30 1012.70 1012.06 1011.34 1010.74 1010.22 1009.78 1009.38 1008.98 1008.62 1008.34 1008.14 1007.90 1007.78 1007.58 1007.30 1007.02 1006.78 1006.38 1006.26 1006.26 1006.26 1006.42 1006.70 1006.94 1007.22 1007.26 1007.10 1006.98 1006.94 1006.94 1006.86
Wind_Speed
8 7 9 8 7 8 8 8 8 8 7 7 6 6 7 9 9 12 14 8 6 9 7 10 8 9 11 12 13 13 11 13 15 12 12 11 10 13 18 19 19 18 18 17 16 13 12 11 13 14 12 9 8 5 4 4 5 6 5 6 7 7 8 9 10 9 10 12 14 15 15 14 16 19
8 9 8 9 8 8 8 8 8 8 7 7 8 7 8 7 9 10 14 16 5 8 7 7 11 11 12 13 13 12 14 17 17 14 13 11 11 16 19 19 19 20 21 18 13 12 11 10 12 13 12 9 5 3 3 3 5 6 5 6 6 6 6 9 11 11 11 12 14 15 16 16 17 18
9 9 9 9 8 8 8 8 8 8 8 8 8 8 8 7 8 10 11 16 10 4 13 11 10 13 14 13 13 14 14 16 19 16 13 12 15 19 16 18 18 20 21 20 14 11 11 10 9 9 9 9 6 3 2 3 4 5 6 8 7 6 7 9 11 11 11 11 13 14 15 17 16 13
8 9 9 9 8 8 7 8 8 8 9 9 8 8 8 8 8 9 11 13 19 12 12 14 13 13 15 14 13 14 13 14 21 14 13 14 18 13 12 15 17 17 19 20 17 12 11 11 10 9 9 8 7 5 2 2 4 6 8 9 7 6 8 10 12 12 12 11 12 13 15 17 16 17
8 8 7 7 8 7 8 7 8 9 9 9 8 8 9 10 10 10 10 13 16 15 9 13 14 14 14 14 12 15 14 14 14 16 15 15 13 13 12 12 15 16 17 19 19 13 12 11 11 10 9 8 6 6 3 4 6 6 7 8 7 6 7 10 12 13 13 12 11 12 14 15 15 14
6 6 6 8 9 8 9 10 10 9 10 10 10 10 9 9 9 9 11 12 13 18 16 13 14 14 14 15 13 13 16 15 14 16 16 14 13 12 12 12 12 17 18 18 20 15 12 12 12 11 11 10 8 7 6 5 5 5 6 6 6 6 6 8 11 12 13 13 12 12 12 12 12 12
7 7 8 8 8 8 11 11 10 10 11 11 11 11 10 11 11 11 11 11 14 16 17 14 15 14 14 14 16 16 14 15 14 16 15 15 13 12 13 13 12 17 19 19 18 16 13 15 12 12 12 11 10 9 7 6 6 6 6 5 5 6 7 7 8 10 11 11 11 10 7 5 6 8
8 8 7 8 8 10 10 11 10 9 11 11 10 11 11 11 12 11 11 11 12 14 16 17 15 15 15 16 15 14 14 15 15 15 14 14 15 15 13 13 13 15 19 17 18 15 12 15 13 13 13 12 11 9 8 7 7 7 6 4 3 3 3 3 2 3 5 7 7 6 5 3 2 4
7 8 8 8 7 8 9 11 10 10 13 11 11 11 11 11 11 11 11 12 12 14 16 18 16 15 16 15 15 14 15 14 15 15 15 13 14 15 13 12 11 15 16 15 14 14 11 14 17 15 13 12 10 9 7 7 8 8 6 4 3 3 3 2 1 2 4 5 5 3 3 2 3 3
6 6 8 8 8 9 9 11 12 12 13 12 12 13 12 12 12 12 13 12 12 13 14 15 18 15 15 17 14 15 14 15 15 17 16 15 13 12 12 11 11 10 11 10 10 10 9 12 17 15 13 12 10 8 8 8 8 7 5 4 4 4 4 4 3 3 4 6 5 3 3 2 1 1
6 7 8 8 9 9 12 13 13 13 13 11 13 13 13 13 13 13 12 12 12 12 12 13 13 16 14 11 16 14 14 15 14 17 17 16 12 11 10 13 10 10 12 14 15 14 13 11 10 14 14 12 11 9 9 8 8 6 6 5 5 5 4 4 3 3 4 5 5 4 5 6 3 4
7 7 8 8 9 9 11 12 12 12 12 12 12 12 12 13 13 13 12 12 11 11 11 11 13 12 13 13 14 14 13 14 15 12 14 16 15 14 13 12 12 12 12 12 11 9 9 9 12 16 13 11 10 9 8 8 8 8 6 6 5 5 4 4 3 3 4 6 4 5 6 8 6 6
7 7 7 8 9 12 15 18 15 15 15 12 13 13 13 14 13 13 12 12 12 12 12 13 12 13 13 12 15 14 12 14 15 16 15 17 16 14 15 14 10 11 12 11 10 9 8 7 7 9 7 8 10 9 9 6 8 8 7 6 5 4 4 3 2 2 4 4 5 6 8 9 9 8
7 8 7 8 14 16 17 17 17 18 19 19 15 14 14 15 14 13 12 12 12 12 13 12 13 15 14 14 13 15 15 12 13 14 13 15 17 15 13 14 9 9 11 11 9 8 7 7 7 7 8 8 9 6 6 6 5 7 8 7 6 5 4 3 2 1 1 2 5 7 10 12 13 11
8 8 8 7 10 13 14 13 17 18 20 19 19 20 19 17 15 14 14 12 12 13 13 13 14 14 17 17 16 16 15 15 13 11 8 10 12 13 12 14 11 8 10 11 11 11 8 6 9 9 8 8 6 5 5 6 8 8 8 8 7 6 4 3 4 3 4 5 6 8 10 12 13 13
7 8 8 8 8 9 13 13 12 16 19 19 20 19 18 18 19 18 14 14 13 13 13 13 12 14 14 17 16 15 15 13 12 11 10 11 9 10 10 12 13 9 10 11 10 12 9 7 7 9 8 6 4 5 5 8 7 8 8 7 7 6 4 4 5 4 4 5 7 9 9 12 13 13
7 8 8 8 9 7 17 13 13 14 15 18 20 19 18 17 17 17 19 18 14 13 14 14 15 13 14 15 14 15 17 15 14 13 10 9 10 8 8 12 11 10 9 9 10 10 11 7 7 8 8 3 3 3 5 7 7 7 8 8 8 7 5 5 5 5 5 6 7 8 10 12 12 12
7 8 9 9 10 9 11 11 14 15 14 14 13 12 11 11 15 16 17 17 19 17 12 12 15 14 13 12 14 17 16 15 14 11 11 11 10 11 10 10 10 9 8 9 8 11 12 7 7 6 7 3 2 2 3 5 6 7 8 9 8 8 7 6 6 6 6 6 8 8 9 12 12 12
7 8 8 9 9 11 11 12 18 16 15 13 11 12 13 13 12 11 10 12 13 12 12 11 11 12 14 14 17 16 15 17 13 12 15 12 11 12 10 10 8 10 8 9 8 9 10 6 7 7 3 2 3 3 4 4 4 5 7 8 8 8 7 7 6 7 8 7 8 10 8 11 13 12
7 8 9 11 11 12 12 18 23 20 16 12 12 13 13 14 13 11 13 17 18 16 15 14 14 14 16 20 17 17 16 16 15 12 9 9 9 8 8 8 8 9 7 6 7 8 9 8 7 5 2 0 3 4 4 4 3 4 7 8 8 8 7 7 6 7 8 9 9 10 11 10 12 13
8 8 12 12 11 12 12 20 22 22 21 13 13 13 13 12 13 12 13 20 22 23 25 24 22 20 19 20 22 22 25 21 19 11 8 9 7 7 8 9 8 8 4 5 6 9 11 8 6 4 2 3 4 4 4 4 3 2 5 7 8 8 8 7 6 6 8 9 10 11 12 13 13 15
8 10 19 17 12 13 14 22 22 23 18 14 13 14 16 15 14 14 14 13 14 23 23 22 19 17 18 22 21 22 23 23 20 11 10 9 6 8 8 8 8 7 6 7 6 7 7 4 1 2 1 3 4 4 4 4 4 4 5 7 8 8 8 8 7 6 7 9 11 12 13 14 13 8
8 9 11 18 16 17 18 22 22 22 19 13 12 14 15 16 16 16 16 15 15 15 15 13 14 14 18 17 15 18 25 23 22 12 12 10 7 8 8 7 6 7 6 5 4 6 4 5 2 2 2 3 3 3 4 4 3 4 4 5 4 7 9 8 7 7 8 9 11 13 13 13 10 7
8 8 9 12 17 22 21 21 22 21 21 15 11 12 14 15 16 16 14 15 15 15 15 15 16 16 15 13 15 15 14 15 20 16 13 12 6 8 8 6 7 6 4 3 4 4 1 1 2 0 4 2 3 2 3 4 3 3 4 4 4 7 8 8 7 8 9 9 11 12 12 11 9 8
7 8 9 9 16 21 21 21 21 20 20 19 12 12 13 14 16 17 13 17 21 14 15 14 15 13 14 14 12 14 13 12 14 13 15 13 11 6 6 7 5 6 7 8 5 1 2 3 5 2 2 4 4 4 3 3 3 3 3 3 4 4 5 5 5 5 7 9 10 11 10 9 8 7
7 7 9 9 16 22 21 20 20 20 19 19 12 15 20 22 22 15 12 12 12 11 12 13 13 13 13 13 14 15 15 13 13 12 11 13 14 8 5 5 4 6 8 7 5 3 2 4 2 1 2 4 4 4 4 3 2 3 3 3 3 3 3 4 5 5 5 5 6 7 7 7 7 8
7 7 8 10 19 20 20 20 20 18 20 14 15 22 22 22 23 16 11 12 12 12 13 13 12 13 14 15 14 12 16 15 13 11 8 11 12 11 10 11 7 6 6 10 7 4 2 2 1 3 3 3 4 2 2 2 2 2 2 2 2 3 3 3 4 5 5 5 5 8 8 7 8 8
8 8 9 12 18 18 19 19 18 17 16 14 20 21 22 21 18 12 12 11 12 14 13 13 14 13 14 14 13 13 13 14 13 11 9 10 11 12 10 11 11 10 10 10 11 11 8 5 4 3 2 3 2 1 2 3 4 4 3 3 2 2 2 3 3 3 4 5 6 6 5 5 5 6
8 11 15 17 17 17 17 18 16 13 14 19 18 20 21 19 11 12 11 11 12 12 14 14 13 13 13 12 13 15 15 14 12 14 13 12 12 13 10 7 7 10 11 10 11 10 9 8 8 7 3 1 1 1 1 0 2 2 4 4 2 3 3 3 4 4 4 5 5 6 6 6 6 6
14 14 15 17 17 15 15 12 11 11 13 18 18 18 18 11 11 11 11 12 12 13 13 14 13 13 13 13 14 15 13 12 12 13 14 14 14 14 12 12 11 10 10 10 12 11 10 8 8 7 6 3 1 1 1 2 3 3 4 3 3 3 3 4 4 4 4 5 5 5 4 5 6 6
8 10 11 11 13 12 16 14 13 12 14 12 12 11 11 10 10 10 10 11 11 11 12 13 13 12 12 11 12 13 13 14 14 14 12 11 12 13 12 11 12 13 11 10 9 11 11 10 9 9 6 5 4 3 3 3 3 4 5 5 5 3 4 4 4 4 4 4 3 4 4 5 5 5
7 7 8 9 7 9 9 9 9 9 10 9 10 11 10 10 10 10 12 10 7 8 10 11 10 11 12 12 14 14 13 13 13 14 14 13 13 13 13 13 14 14 13 13 12 13 12 11 10 9 7 5 4 4 3 4 4 4 5 5 5 4 5 5 5 4 4 5 4 4 4 5 5 5
6 5 6 7 8 9 10 10 10 10 11 10 10 11 11 11 10 10 10 11 11 11 12 13 13 13 12 13 14 14 13 13 13 13 13 13 13 12 11 11 11 13 14 14 14 14 14 13 12 8 7 6 5 6 3 3 4 4 5 5 6 5 5 5 5 5 6 5 5 4 4 4 5 5
5 6 6 7 8 9 10 10 11 11 11 11 12 11 12 11 10 11 10 10 11 12 12 13 12 13 12 12 13 13 14 14 14 13 13 13 13 12 12 11 11 11 11 11 11 11 13 13 13 9 6 5 2 3 4 3 3 3 4 5 6 5 5 6 6 7 7 6 5 5 4 4 5 5
6 6 7 7 7 8 8 9 10 10 10 11 10 11 11 9 11 11 11 11 12 11 12 12 11 11 11 12 12 13 13 13 14 13 12 11 10 11 12 11 11 11 11 11 11 11 11 11 12 12 10 10 7 4 2 2 4 5 4 5 6 6 6 6 6 6 7 5 5 6 4 4 5 6
4 5 6 6 7 7 8 9 9 9 9 9 9 9 10 11 10 11 11 12 11 11 12 11 11 12 12 12 12 12 12 13 12 12 13 13 12 11 10 9 10 10 10 10 10 10 9 9 10 11 10 10 9 7 2 3 5 4 4 3 6 6 6 7 7 7 7 6 6 6 5 6 6 6
3 5 5 6 6 6 7 8 8 8 8 9 9 9 9 10 10 10 11 12 10 10 11 10 10 11 12 12 12 11 11 12 12 12 12 12 11 11 12 12 12 12 12 11 10 10 9 9 10 10 10 9 8 8 9 5 6 6 7 7 5 4 6 7 7 6 7 7 6 7 6 5 4 5
5 5 5 5 4 4 5 6 7 7 8 8 9 9 9 9 9 10 10 9 9 9 11 10 10 11 11 11 12 12 12 11 11 11 11 12 12 13 12 12 12 12 12 12 11 10 9 8 8 9 8 8 8 8 9 6 6 2 6 6 5 6 3 7 7 7 6 6 7 7 4 3 2 4
4 4 5 5 4 4 5 5 6 6 7 8 9 9 9 9 9 10 9 9 9 11 10 10 10 11 11 11 10 11 12 12 11 11 11 11 11 11 11 11 11 11 12 12 11 11 10 10 9 9 8 7 7 7 7 7 8 9 10 9 5 5 4 7 8 7 7 6 5 4 3 2 3 3
4 3 4 4 3 3 3 4 5 6 7 8 8 8 9 9 9 9 9 10 9 10 9 9 11 11 11 11 11 11 10 11 11 10 11 12 11 11 11 11 10 11 11 12 12 11 10 11 9 9 9 8 8 8 8 7 7 7 8 9 4 5 6 7 6 7 6 6 5 6 4 4 2 1
3 3 3 3 2 2 3 4 6 7 7 8 8 8 7 8 8 9 9 9 9 9 9 10 10 11 11 11 11 11 12 12 12 12 11 11 11 11 13 12 11 11 11 11 11 11 11 10 12 15 11 7 8 8 4 3 5 5 5 7 8 9 8 9 6 7 5 7 7 6 5 4 2 4
2 3 2 2 2 2 2 4 5 6 7 7 7 8 8 7 6 11 9 9 9 9 9 10 10 10 10 11 11 11 10 11 12 13 13 11 12 12 12 10 11 11 12 11 11 10 9 9 10 9 8 7 6 6 6 6 7 7 5 6 6 9 4 9 5 4 6 8 8 5 2 2 2 2
2 2 2 3 2 2 2 3 5 6 6 6 7 7 7 7 7 8 7 8 9 9 9 9 10 9 9 10 11 11 11 11 11 12 12 12 12 11 11 11 12 12 11 11 11 9 9 9 9 10 9 6 5 4 5 7 6 5 6 6 6 4 4 8 12 13 12 10 7 2 3 4 4 3
2 2 1 1 2 2 2 3 5 6 6 6 6 6 6 7 7 8 7 8 8 9 9 9 9 9 10 10 10 10 10 11 11 11 11 11 12 11 11 12 12 12 12 11 11 11 11 9 8 8 7 7 6 6 7 7 5 3 4 5 4 1 4 5 7 9 10 12 13 7 4 4 1 3
1 1 1 1 1 2 2 3 4 5 6 6 6 6 6 5 5 6 7 7 8 9 9 9 10 9 10 10 10 11 11 12 12 11 11 11 10 11 11 12 12 12 12 13 12 11 11 11 10 9 7 7 6 6 6 5 5 4 4 3 2 2 2 2 4 5 4 3 10 9 7 9 8 6
Wind_Direction
14 14 13 13 2 2 356 358 356 352 346 346 342 345 341 330 316 321 318 314 337 319 322 320 323 327 331 330 327 322 314 313 311 306 307 308 306 300 293 286 277 269 263 258 259 263 268 271 276 272 264 259 246 214 207 236 251 261 268 281 291 308 305 293 287 278 265 261 257 253 248 242 233 224
14 14 14 12 6 0 356 355 349 349 347 347 347 342 336 331 322 318 314 307 333 312 322 318 312 323 324 322 314 317 314 310 308 302 301 302 305 306 303 295 286 279 273 260 245 246 252 260 267 270 265 262 256 227 221 242 261 272 286 278 284 292 291 289 283 280 274 266 262 253 246 243 239 227
14 13 13 9 5 359 353 354 353 356 355 352 346 340 338 332 325 318 311 306 303 2 310 309 304 308 312 312 312 307 303 305 308 302 297 300 305 308 304 303 297 289 278 265 246 232 237 239 245 262 275 283 285 264 225 242 267 296 294 285 288 293 287 277 278 281 279 271 264 254 245 243 235 208
17 15 14 8 3 353 352 356 354 353 352 349 343 340 339 332 326 318 310 302 300 313 310 306 308 312 312 311 309 307 309 306 303 312 317 316 315 308 301 299 295 292 287 275 256 235 229 224 226 237 249 260 275 279 237 222 271 284 281 284 287 290 293 280 274 276 277 269 259 251 243 240 239 228
16 10 4 360 357 352 351 351 348 351 348 341 336 337 337 332 330 323 317 307 304 303 306 308 309 315 316 308 316 311 309 310 315 318 314 315 310 304 300 303 301 297 292 285 271 242 221 215 215 221 228 230 239 256 231 204 228 258 278 284 292 295 291 283 276 277 277 276 274 267 254 245 241 238
4 353 354 358 358 355 354 351 350 348 344 342 337 337 333 329 324 322 316 309 304 303 310 313 311 310 315 307 312 309 309 309 310 310 310 308 305 305 309 309 305 302 298 291 281 256 226 213 207 206 218 217 225 233 239 222 214 247 275 285 291 284 268 271 272 273 273 276 281 281 277 257 247 241
356 358 357 350 348 357 356 352 347 347 346 343 337 332 331 326 322 320 316 311 307 307 305 313 313 317 316 311 311 312 307 306 306 305 306 309 310 310 312 307 303 298 295 291 288 272 243 231 207 203 207 210 215 226 233 227 220 223 232 252 277 278 268 254 263 275 281 280 282 294 291 279 252 237
359 354 348 345 347 6 354 352 347 347 343 339 333 327 323 318 316 315 312 305 302 304 306 309 314 313 313 312 309 308 306 306 306 307 304 304 305 308 307 300 293 289 285 285 287 280 246 246 230 204 201 206 212 223 226 225 224 224 226 240 266 285 281 272 278 277 280 292 302 332 323 306 278 245
350 346 340 331 331 2 354 354 349 344 340 335 329 325 322 318 314 310 308 304 300 299 299 305 309 309 308 310 310 309 308 308 304 304 304 303 303 304 302 300 296 299 304 298 292 290 260 242 242 219 201 201 209 220 230 236 233 224 211 215 201 218 252 269 223 250 273 282 287 282 287 272 297 264
344 335 333 331 326 347 358 351 346 341 336 332 329 327 324 320 314 310 308 306 304 299 296 298 306 310 313 313 312 313 308 306 306 304 304 303 298 299 306 307 305 305 303 306 304 296 276 251 248 233 204 202 200 209 227 234 235 223 213 203 180 199 229 247 236 230 251 267 271 222 182 135 137 121
336 340 341 332 328 330 352 347 345 342 337 334 329 327 326 322 318 315 313 313 308 303 300 298 293 300 303 306 307 309 308 300 298 301 304 303 303 301 300 304 304 301 297 292 289 286 279 264 244 233 214 202 195 204 218 224 227 218 205 197 187 199 228 251 250 225 238 256 239 163 165 120 117 120
342 342 337 332 319 329 352 346 344 344 337 334 330 330 326 325 324 321 319 314 310 306 304 301 301 296 299 301 298 300 302 302 298 299 300 300 302 304 302 298 302 303 297 293 294 283 265 256 246 246 232 205 198 200 208 219 216 207 200 192 195 190 217 243 249 221 225 241 200 163 148 120 126 130
341 339 335 324 330 354 348 347 347 344 341 337 333 331 329 328 326 322 318 315 313 310 306 303 299 297 296 294 296 297 298 294 291 297 299 294 293 294 297 298 297 293 290 285 281 285 279 258 241 228 213 216 210 212 212 217 212 203 196 193 187 187 198 227 256 248 223 195 163 155 139 119 101 85
344 342 334 329 346 356 349 348 348 345 342 339 333 329 331 331 327 323 319 317 314 311 310 307 307 303 298 295 291 290 286 278 280 283 284 288 293 295 291 291 290 303 297 298 309 310 300 266 250 225 234 212 197 196 197 205 195 195 196 190 182 173 185 183 144 195 224 161 153 151 143 129 115 104
344 341 340 337 351 351 344 348 348 344 342 338 334 330 330 330 329 324 321 314 312 313 312 309 306 301 299 297 293 287 285 285 274 263 260 272 281 285 292 295 301 301 308 315 312 303 320 293 264 235 230 203 189 188 192 190 194 196 195 189 179 170 178 151 132 136 148 148 149 150 146 130 120 114
342 339 336 340 354 349 348 348 344 342 343 338 334 331 329 330 329 325 318 314 313 314 314 311 307 306 302 305 304 298 295 285 277 270 261 263 259 267 272 278 285 305 305 303 314 305 309 308 288 268 238 202 175 175 174 183 199 192 192 186 175 165 163 150 122 118 121 130 141 143 144 127 123 119
342 338 339 341 354 346 348 344 345 344 341 338 334 329 327 326 328 326 318 315 318 318 314 313 313 313 311 310 314 316 313 295 281 276 272 258 251 252 257 268 277 283 300 317 303 296 297 302 287 280 263 226 158 148 167 184 189 190 183 181 173 167 163 149 127 125 121 130 134 140 135 125 122 120
339 340 340 343 350 349 344 342 350 346 340 339 333 330 329 326 326 326 322 324 325 322 315 307 309 310 315 314 312 315 315 302 283 273 272 262 257 257 251 260 272 282 285 282 291 287 288 287 276 263 266 281 80 104 133 169 184 183 176 180 176 165 162 153 138 130 128 130 132 135 136 128 126 125
340 337 338 345 352 349 345 350 351 346 344 342 338 337 335 330 326 320 322 329 325 317 312 306 305 310 316 315 316 316 318 320 306 274 264 263 262 262 266 269 271 273 257 254 257 273 287 296 266 242 224 331 102 106 95 98 143 163 168 177 174 161 158 157 146 136 130 131 132 130 128 133 131 126
345 336 345 355 355 352 345 352 350 348 346 345 343 342 337 332 327 324 326 325 320 318 317 314 312 311 316 320 322 325 326 326 323 306 268 267 263 264 260 268 271 274 273 238 252 271 280 271 244 238 103 202 125 97 89 86 127 160 161 170 165 159 157 155 147 136 131 131 132 130 126 120 115 110
352 346 356 356 358 351 349 351 349 350 351 349 347 343 338 335 330 329 331 329 329 329 325 319 306 304 317 330 332 334 331 326 329 331 299 267 264 259 259 263 277 279 284 266 245 254 262 257 218 224 116 137 111 87 74 79 55 140 149 157 159 155 152 149 144 138 133 132 132 129 127 123 118 112
356 352 357 358 358 355 351 350 350 351 353 353 349 347 347 346 342 337 337 333 332 328 326 323 314 312 328 338 337 336 330 323 333 338 331 300 252 256 256 272 281 296 288 277 260 280 275 322 321 115 149 114 62 70 74 68 64 60 111 144 153 146 145 144 142 142 132 130 133 134 132 129 124 117
353 344 350 354 359 357 351 349 351 351 355 351 351 349 349 349 345 341 335 334 332 330 330 332 336 337 341 345 342 335 331 327 342 340 332 315 240 245 262 269 284 280 279 266 253 247 294 298 303 103 210 108 71 61 68 63 52 54 84 131 142 141 139 138 141 136 132 132 134 138 138 133 125 122
344 343 344 348 355 356 352 350 351 351 355 353 348 353 356 350 345 337 332 335 339 331 339 340 340 339 340 340 342 338 335 332 343 343 338 331 280 232 247 261 247 256 270 288 2 270 271 239 284 258 271 159 126 85 56 65 52 55 82 106 122 141 134 129 130 135 134 135 138 141 141 138 132 128
345 346 349 338 352 352 351 351 351 352 354 355 353 355 355 350 338 336 340 337 340 335 342 344 342 340 342 340 340 339 337 337 341 340 342 348 333 223 228 233 255 267 266 276 260 8 16 314 286 252 351 52 89 110 74 83 53 54 64 89 116 137 136 135 131 135 138 140 143 143 143 141 140 134
353 346 349 342 350 348 349 351 351 351 354 354 358 353 350 348 350 348 341 337 339 338 343 344 341 341 341 342 342 344 342 337 338 339 342 344 355 354 259 259 268 280 283 283 230 234 218 262 268 42 44 75 55 83 115 84 63 41 41 61 91 115 132 142 137 135 142 144 144 147 140 129 126 129
347 346 344 345 349 347 349 352 351 351 354 357 356 353 353 354 351 350 349 343 342 347 346 344 342 345 347 343 337 337 342 338 340 335 333 341 355 3 17 22 23 9 5 14 7 11 217 247 232 54 63 63 97 87 91 118 118 124 114 64 66 115 128 132 141 147 144 141 143 140 131 130 130 125
353 352 353 350 350 351 351 350 350 349 357 357 355 355 355 355 352 352 348 349 347 350 347 346 344 344 344 340 337 332 331 334 337 339 336 345 352 360 4 13 17 20 19 21 18 18 13 13 15 41 107 108 95 76 88 102 119 143 130 136 121 124 132 143 138 139 141 138 143 153 149 148 141 126
357 354 353 352 354 353 353 350 348 349 355 357 359 358 358 356 352 354 350 350 347 348 350 345 338 334 338 335 329 327 323 326 336 351 355 357 3 2 5 1 7 16 17 15 19 16 15 17 15 0 16 125 81 97 141 122 118 147 150 135 147 164 156 151 150 153 153 154 159 165 170 160 156 157
357 358 357 354 353 352 355 353 358 356 354 352 358 359 359 356 352 351 350 350 351 352 345 342 337 332 331 336 335 324 326 342 345 350 353 354 1 1 358 357 6 11 16 15 16 12 11 8 14 3 355 5 28 276 238 216 217 171 164 179 134 124 166 164 160 153 154 171 168 167 161 166 164 165
357 356 359 352 350 351 353 357 357 356 354 354 355 356 356 355 354 353 352 350 344 340 342 341 334 328 327 325 337 348 346 346 348 348 347 354 354 358 360 359 4 4 1 2 12 15 9 6 5 5 360 347 332 304 271 243 232 169 177 173 161 212 160 160 158 160 166 156 151 145 148 158 162 178
354 352 345 344 347 350 351 354 354 358 357 358 356 351 349 350 346 346 344 340 334 334 341 335 326 327 337 340 345 345 347 347 341 343 350 356 352 357 356 7 6 356 355 358 358 360 4 7 358 352 347 327 300 281 254 246 240 211 183 174 177 169 146 166 167 167 158 149 152 171 172 176 184 193
347 346 349 356 357 3 359 357 356 354 353 352 352 351 352 347 346 350 351 350 346 341 348 349 342 343 343 343 345 347 350 349 342 342 346 351 356 354 4 9 359 358 354 351 352 353 355 355 355 343 332 319 272 247 241 237 246 231 191 174 183 174 163 158 165 157 148 156 185 177 186 201 203 198
357 3 359 2 1 1 359 360 357 356 351 349 348 348 348 347 349 350 348 348 343 342 350 350 344 345 345 346 347 348 348 344 348 345 351 347 349 354 1 1 360 355 352 348 347 348 348 349 349 343 337 337 4 202 217 222 274 257 224 184 184 187 170 165 166 165 169 184 171 175 204 209 209 202
13 6 4 2 3 3 358 360 353 349 349 349 346 344 342 345 349 348 346 347 341 342 348 345 344 345 349 349 346 346 345 342 341 345 347 348 351 356 353 352 353 352 351 351 348 349 347 349 352 354 357 6 7 59 76 58 14 336 283 203 193 182 162 171 161 169 175 163 164 189 199 213 216 210
12 8 5 2 4 360 359 356 348 348 346 344 343 341 343 345 346 346 344 339 335 347 350 344 344 347 348 348 345 343 340 338 338 343 344 345 347 348 351 350 348 348 348 349 346 346 346 350 357 3 4 357 359 353 342 49 28 341 311 244 195 193 169 163 169 167 167 173 186 182 190 210 222 205
11 11 6 3 1 359 355 348 346 343 342 341 342 345 343 339 338 336 333 330 341 352 350 343 343 346 344 344 342 342 341 341 337 338 340 340 340 341 344 347 347 350 350 349 347 348 353 356 360 2 357 354 351 338 314 319 340 9 53 19 341 214 163 161 157 164 180 184 182 192 205 201 216 201
20 8 1 358 356 352 347 343 340 339 338 340 341 340 340 334 330 331 333 342 347 349 354 351 344 344 344 344 343 340 340 339 335 337 339 340 342 345 344 337 337 342 343 343 346 348 350 350 356 358 356 348 333 330 327 328 331 334 50 22 332 317 209 156 158 165 187 195 199 202 186 196 159 154
17 7 359 349 349 347 343 342 338 334 334 339 342 341 337 335 334 336 341 345 347 354 347 346 344 343 340 342 342 341 339 336 336 335 333 334 331 332 336 337 333 338 339 341 344 350 349 352 350 348 345 330 318 308 302 303 296 300 310 311 287 281 227 166 172 171 170 187 197 165 121 67 76 113
8 356 355 344 338 342 335 333 333 337 336 339 339 340 338 336 336 337 341 345 345 348 344 342 339 340 341 342 341 338 335 335 332 329 330 329 327 326 333 334 337 340 340 341 343 344 346 342 334 334 323 306 288 284 284 269 271 278 278 295 249 237 237 172 169 165 182 182 154 154 148 139 121 111
357 351 349 342 331 337 332 332 337 335 336 337 337 337 338 337 340 343 340 338 339 342 345 344 344 343 340 340 340 340 335 333 336 334 330 327 328 330 323 326 341 343 342 343 341 340 336 328 317 307 299 296 298 307 299 316 309 308 319 311 325 310 250 225 178 168 164 160 162 154 149 150 136 132
346 339 333 337 333 323 329 334 334 335 337 340 339 339 336 340 338 339 336 340 345 344 344 344 342 340 339 339 337 335 334 333 334 334 332 332 331 330 332 337 342 344 344 340 336 327 317 311 313 321 332 325 328 345 339 326 317 319 310 316 317 314 229 197 178 144 142 155 149 131 105 75 91 141
344 336 331 331 321 318 333 334 334 335 336 338 340 338 338 340 343 347 347 345 345 343 342 338 338 335 335 336 334 331 330 332 334 332 330 331 330 329 333 340 342 342 341 332 328 316 320 326 328 340 334 333 336 326 319 319 307 298 306 316 313 323 69 92 96 88 73 57 40 99 150 149 145 189
343 329 320 321 316 318 328 335 334 336 334 338 335 338 344 342 346 345 344 344 339 338 337 333 332 335 334 332 328 330 333 332 330 329 328 327 326 325 325 333 341 344 343 342 334 335 335 331 335 336 337 344 330 327 326 320 307 304 300 292 299 357 95 100 92 78 66 44 22 10 113 130 282 233
332 318 309 314 311 313 327 332 334 336 336 337 339 340 339 342 344 341 344 342 336 335 334 333 332 331 331 332 335 333 331 325 327 330 326 327 327 327 329 338 344 346 346 345 341 338 342 344 343 341 337 337 339 333 326 314 300 299 301 309 353 79 81 97 104 92 69 45 9 18 69 66 56 56